Regional Weather Roundup
Issued by NWS

Home | Current Version | Previous Version | Text Only | Print | Product List | Glossary On
Versions: 1 2 3 4 5 6 7 8 9 10 11 12 13 14 15 16 17 18 19 20 21 22 23 24 25 26 27 28 29 30 31 32 33 34 35 36 37 38 39 40 41 42 43 44 45 46 47 48 49 50
000
ASHW40 PHFO 201043
RWRHI

WEATHER ROUNDUP FOR HAWAII
NATIONAL WEATHER SERVICE HONOLULU HI
1200 AM HST SAT DEC 20 2014

THIS IS AN AUTOMATED REPORT THAT HAS NOT BEEN QUALITY CONTROLLED.

NOTE..."FAIR" INDICATES FEW OR NO CLOUDS BELOW 12,000 FEET WITH NO
SIGNIFICANT WEATHER AND/OR OBSTRUCTIONS TO VISIBILITY.

* - THESE SITES REPORT LIMITED FIELDS

HIZ001>004-201100-
KAUAI-NIIHAU-

CITY           SKY/WX    TMP DP  RH WIND       PRES   REMARKS
LIHUE APT      PTCLDY    76  68  76 E13       30.05F
PORT ALLEN*      N/A     72 N/A N/A E8          N/A
POIPU*           N/A     75 N/A N/A NE6G14      N/A
PRINCEVILLE*     N/A     72 N/A N/A MISG        N/A
KOKOLE POINT*    N/A     72 N/A N/A MISG        N/A
MOLOAA DAIRY*  NOT AVBL
WAIMEA HTS*      N/A     72  61  68 NE5G12      N/A
PUU OPAE*        N/A     63  57  82 CALM        N/A
PUU LUA*       NOT AVBL
MAKAHA RIDGE*  NOT AVBL
$$

HIZ005>011-201100-
OAHU-

CITY           SKY/WX    TMP DP  RH WIND       PRES   REMARKS
HONOLULU       PTCLDY    75  65  70 NE6       30.03F
KALAELOA       PTCLDY    70  64  81 CALM      30.05F
KANEOHE MCB    CLOUDY    76  67  73 E8        30.04F
WHEELER FIELD  FAIR      70  63  78 VRB1      30.05F
BELLOWS*         N/A    N/A N/A N/A E16         N/A
KAHUKU*          N/A    N/A N/A N/A E9G17       N/A
WHEELER*       NOT AVBL
WAIANAE HARBOR NOT AVBL
DILLINGHAM*      N/A     64  63  94 E2          N/A
KAHUKU TRN*      N/A     72  66  83 E9G20       N/A
KAWAILOA*        N/A     70  63  78 E7G15       N/A
KII*             N/A     75  68  78 E16G24      N/A
MAKUA RANGE*     N/A     72  61  68 SE5G10      N/A
OAHU FOREST NW   N/A     64 -11   4 CALM        N/A
SCHOFIELD BRK*   N/A     66  64  94 MISG        N/A
SCHOFIELD S*   NOT AVBL
WAIANAE VLY*     N/A     66  61  82 NE3G9       N/A
KUAOKALA*        N/A     72  61  68 CALM        N/A
HONOULIUULI*   NOT AVBL
MOKUOLOE IS*     N/A    N/A N/A N/A MISG        N/A
PALEHUA*         N/A     77  66  69 CALM        N/A
WAIAWA PHB*    NOT AVBL
$$

HIZ012>013-201100-
MOLOKAI-

CITY           SKY/WX    TMP DP  RH WIND       PRES   REMARKS
MOLOKAI AIRPT  CLEAR     69  62  78 NE5       30.04F
KALAUPAPA      NOT AVBL
MAKAPULAPAI*     N/A     75  68  78 E14G23      N/A
MOLOKAI 1*       N/A     63  59  88 NE3G12      N/A
PUU ALII*        N/A     57  56  98 SE3G13      N/A
$$

HIZ016-201100-
KAHOOLAWE-

CITY           SKY/WX    TMP DP  RH WIND       PRES   REMARKS
KAHOOLAWE*       N/A     68 N/A N/A E20G26      N/A
HAKIOAWA*        N/A     70  62  76 MISG      30.44S
HONOKANAIA*      N/A     75  67  75 NE14G26   30.03F
KANELOA*         N/A     73  68  83 E20G31    29.24F
KEALIALALO*    NOT AVBL
LUA MAKIKA*    NOT AVBL
$$

HIZ014>015-201100-
LANAI-

CITY           SKY/WX    TMP DP  RH WIND       PRES   REMARKS
LANAI CITY     FAIR      69  64  84 CALM      30.08F
LANAI 1*         N/A     66  66 100 N8          N/A
$$

HIZ017>028-201100-
MAUI-

CITY           SKY/WX    TMP DP  RH WIND       PRES   REMARKS
KAHULUI        PTCLDY    68  63  84 SE6       30.02F
KAPALUA-W MAUI NOT AVBL
HANA AIRPORT   MOCLDY    73  66  78 SE5       30.07S
HANA*            N/A     75 N/A N/A SE6G16      N/A
HALEAKALA SUMM   N/A     46  -2  13 SE26        N/A
MAALAEA BAY*   NOT AVBL
HALEAKALA*     NOT AVBL
KAUPO GAP*       N/A    N/A N/A N/A W3G12       N/A
KULA 1*          N/A     62 -14   4 VRB5G13     N/A
$$

HIZ023>026-201100-
BIG ISLAND OF HAWAII COAST AND LOWER SLOPES-

CITY           SKY/WX    TMP DP  RH WIND       PRES   REMARKS
KAILUA KONA    CLEAR     71  63  75 CALM      29.99F
HILO           MOCLDY    70  65  84 SW6       30.05F
HONOKAA*       NOT AVBL
KAWAIHAE MWT*    N/A     73 N/A N/A E6          N/A
KAWAIHAE*        N/A     73 N/A N/A NE5         N/A
SOUTH POINT*     N/A     68 N/A N/A NE15G22     N/A
UPOLU AIRPORT*   N/A    N/A N/A N/A NE22G31     N/A
KAMUELA*       FOG       50  48  93 E9        30.11S VSB 1/2
HAKALAU*         N/A     50   8  18 SW6G13      N/A
KALOKO-HONOKO*   N/A     66  57  72 E2        29.99S
PALI 2*          N/A     61  57  88 N9G20       N/A
KEALAKOMO*       N/A     73  64  73 NE9G15      N/A
KAUPULEHU*       N/A     64  54  68 SE7         N/A
KAPAPALA*        N/A     56  53  91 CALM        N/A
LOWER KAHUKU*    N/A     57  55  94 N2G13       N/A
PUHE CS*       NOT AVBL
PUHO CS*         N/A     69  56  64 E3          N/A
PTA KEAMUKU*     N/A     52  41  66 CALM        N/A
WAIKOLOA*        N/A     61  52  72 E8          N/A
$$

HIZ027>028-201100-
BIG ISLAND OF HAWAII INTERIOR AND SUMMMITS-

CITY           SKY/WX    TMP DP  RH WIND       PRES   REMARKS
BRADSHAW FIELD CLOUDY    57   3  11 S9G16     30.34F
MK VISITOR CEN NOT AVBL
MAUNA KEA*       N/A     30  -9  17 SE44        N/A  WCI  13
MAUNA LOA*       N/A     41 -11  10 MISG        N/A
MAUNA LOA 1*   NOT AVBL
PTA KIPUKA*      N/A     63   0   8 E13G18      N/A
PTA RANGE 17*    N/A     63  -2   7 SE18G26     N/A
PTA WEST*        N/A     55  39  54 E7G18       N/A
NENE CABIN*      N/A    N/A N/A N/A NE8G15      N/A
AHUMOA*          N/A     56   4  12 NE5G12      N/A
PTA PORTABLE*  NOT AVBL
PUU MALI*      NOT AVBL
$$

HIC003-201100-
NORTHWEST ISLANDS-

CITY           SKY/WX    TMP DP  RH WIND       PRES   REMARKS
MIDWAY ISLAND  LGT RAIN  64  54  68 NW14G24   30.06R
MIDWAY NOS*    NOT AVBL
FRENCH FRIGATE NOT AVBL
$$

PHZ110>124-180-201100-
BUOY REPORTS

STATION/POSITION TIME  TEMP    WIND        PRES    WAVE   SWELL
                       AIR SEA DIR/SP/G            HT/PER HT/DIR
                 (UTC) (F)     (DEG/KT/KT) (MB)    (FT/S) (FT/D)
BUOY 51001       NOT AVBL
BUOY 51101       1000   76 77  140/ 12/ 14 1017.0F   7/12   7/310
BUOY 51100       0900   74 75  100/ 12/ 16 1020.0
BUOY 51003       1000   78 79   70/ 14/ 16 1016.5F  10/12  10
BUOY 51004       0911   77 78   80/ 21/ 25 1015.3F  11/ 9   8/100
BARBERS PT BUOY  NOT AVBL
WAIMEA BAY BUOY  1000      77                N/A     7/13
KAILUA BAY BUOY  1000      77                N/A     8/14   5/360
LANAI BUOY       1000      78                N/A     3/13   2/280
BARBERS PT 2     1000      77                N/A     5/13   3/310
PAUWELA MAUI     1000      77                N/A    10/14   7/340
HILO             1000      78                N/A     9/ 8   5/340
KANEOHE BAY BUOY 1000      77                N/A     7/13   3/350
HANALEI KAUAI    NOT AVBL
KAHULUI HARBOR   1000   72 76   50/  2/  5 1016.4R
HONOLULU HARBOR  1000   76      60/  4/  6 1017.4F
KILO NALU        NOT AVBL
HILO HARBOR      1000   71     170/  8/ 11 1017.3S
MOKUOLOE         1000   75 75  100/ 11/ 14 1017.6F
NAWILIWILI       1000      76                N/A
WHOTS BUOY       NOT AVBL
BUOY 51028       NOT AVBL
$$

......................KEY........................................
  SKY/WX - SKY CONDITIONS/PRESENT WEATHER
  TMP    - TEMPERATURE IN FAHRENHEIT
  DWPT   - DEWPOINT IN FAHRENHEIT
  RH     - RELATIVE HUMIDITY IN PERCENT
  WIND   - DIRECTION AND SPEED /MPH FOR ISLANDS...KTS FOR BUOYS/
  PRES   - MEAN SEA LEVEL PRESSURE IN INCHES OF HG
  VSB    - VISIBILITY IN MILES
  HX     - HEAT INDEX
  WCI    - WIND CHILL INDEX
  VRB    - VARIABLE WIND DIRECTION
  N/A    - NOT AVAILABLE



USA.gov is the U.S. government's official web portal to all federal, state and local government web resources and services.